COSMOS 2251 DEB, 34793

Orbit data source: Space-Track

COSMOS 2251 DEB, 34793 is space debris in LEO originally from a launch on Wed, 16 Jun 1993 UTC launched from the Plesetsk Missile And Space Complex (PKMTR). The debris from Iridium 33, an American commercial communications satellite, has been tracked extensively since its accidental collision with the defunct Russian satellite Cosmos 2251 in 2009. This event, occurring at high speed in low Earth orbit (LEO), generated thousands of pieces of space debris, significantly increasing the risk of further collisions. The Iridium 33 debris cloud has impacted space traffic management and orbital debris mitigation strategies, making it a subject of ongoing study in space situational awareness.

Loading next visibility...
Identifier
34793, 1993-036AAW
Orbit
LEO
Country
Flag of CISCIS
Related business
Manufacturer
Unknown
Mission
Spacecraft
Bus & Motor
Unknown
Mass
Unknown
Launch date (UTC)
1993-06-16 (33 years ago)
Launch vehicle
Unknown
Launch site
Plesetsk Missile And Space Complex (PKMTR)
Object type
Payload
Rocket body
Debris
Shape & HBR
Unknown shape, 0.1 m
Radar Cross Section
Small (<0.1 m²)

Expand to show TLE details & history
Last TLE update: 16 hours ago

TLE from 16 hours ago
0 COSMOS 2251 DEB
1 34793U 93036AAW 25352.16752610  .00000587  00000-0  19716-3 0  9999
2 34793  74.0023 240.3395 0050524  33.0541 128.6501 14.38653355874085
Epoch: 2025-12-18T04:01Z
TLE epoch observation values (Epoch: 2025-12-18T04:01:14.255Z)
Latitude
17.12582°
Longitude
-92.03806°
Altitude
787.599 km
Speed
7.45 km/s
True Right ascension
03h 41m 11s
True Declination
17° 01' 47"
Sunlit
Object was in full shadow at epoch
Visualization orbit readout
Latitude
Unknown
Longitude
Unknown
Altitude
Unknown
Speed
Unknown
Apparent Right ascension
Unknown
Apparent Declination
Unknown
Sunlit
N/A
Visualization observer readout
Local Sidereal Time
19:06:58
Azimuth
Unknown
Elevation
Unknown
Doppler factor
Unknown
Orbital elements
Apogee altitude
796.643 km
Perigee altitude
724.507 km
Semi-major axis
7,138.712 km
Eccentricity
0.00505
Inclination
74.0023°
RAAN
240.3395°
Arg. of periapsis
33.0541°
True anomaly
129.10047°
Mean anomaly
128.6501°
Eccentric anomaly
128.87546°
Mean motion
3.59843 °/min
Orbital period
100.04 mins
BSTAR
0.00019716
Loading maneuver chart data...
Computing Atmospheric mass density...

Documentation

Showing up to 5 results
|